STARLINK-35806, 66363

Orbit data source: Space-Track

STARLINK-35806, 66363 is a payload satellite owned by SpaceX/Seattle (US) in LEO that was launched on Thu, 06 Nov 2025 UTC via an FALCON 9 launch vehicle from the Air Force Western Test Range (AFWTR). Payload-class satellites include a variety of spacecraft equipped with specific instruments for various scientific and technological missions. These include communications satellites like Starlink; space stations such as the ISS; scientific satellites like the Hubble; Earth observation satellites from companies like Planet Labs, Umbra, and HawkEye 360; GPS; miniature CubeSats for education and research; and military/defense satellites.

Loading next visibility...
Identifier
66363, 2025-254R
Orbit
LEO
Country
Flag of USUS
Related business
Manufacturer
SpaceX/Seattle
Mission
Operational Commercial Communications
Bus & Motor
STARLINK V2MO, Unknown motor
Mass
575 kg wet, ~530 kg dry
Launch date (UTC)
2025-11-06 (7 months ago)
Launch vehicle
FALCON 9
Launch site
Air Force Western Test Range (AFWTR)
Object type
Payload
Rocket body
Debris
Shape & HBR
Box + 2 Pan, 17.7 m
Radar Cross Section
36.964 m², Large (>1 m²)

Expand to show TLE details & history
Last TLE update: 1 day ago

TLE from 1 day ago
0 STARLINK-35806
1 66363U 25254R   26170.85887422  .00023604  00000-0  80630-3 0  9997
2 66363  53.1594 118.2149 0001393  78.7033 281.4124 15.30210172 34611
Epoch: 2026-06-19T20:36Z
TLE epoch observation values (Epoch: 2026-06-19T20:36:46.732Z)
Latitude
-0.00005°
Longitude
-99.06166°
Altitude
475.896 km
Speed
7.629 km/s
True Right ascension
07h 52m 51s
True Declination
0° 00' 00"
Sunlit
Object was in daylight at epoch
Visualization orbit readout
Latitude
Unknown
Longitude
Unknown
Altitude
Unknown
Speed
Unknown
Apparent Right ascension
Unknown
Apparent Declination
Unknown
Sunlit
N/A
Visualization observer readout
Local Sidereal Time
07:18:16
Azimuth
Unknown
Elevation
Unknown
Doppler factor
Unknown
Orbital elements
Apogee altitude
476.396 km
Perigee altitude
474.487 km
Semi-major axis
6,853.578 km
Eccentricity
0.00014
Inclination
53.1594°
RAAN
118.2149°
Arg. of periapsis
78.7033°
True anomaly
281.39675°
Mean anomaly
281.4124°
Eccentric anomaly
281.40458°
Mean motion
3.82531 °/min
Orbital period
94.11 mins
BSTAR
0.0008063
Loading maneuver chart data...
Computing Atmospheric mass density...
Loading historical data...
Loading historical data...
Loading historical data...
Loading historical data...
Loading historical data...
Loading historical data...
Loading historical data...

Documentation

Showing up to 5 results
|